| time (UTC) | temp C | wind direction | speed KPH | gust KPH | rain 1hr cm | rain 24hr cm | rain mn cm | humidity % | barometer mb |
| 20260509221438 | 23 | 270 | 12.9 | 24.1 | 0.00 | 0.00 | 0.00 | 57 | |
| 20260509221232 | 22 | 271 | 19.3 | 24.1 | 0.00 | 0.00 | 0.00 | 58 | |
| 20260509221030 | 23 | 278 | 16.1 | 24.1 | 0.00 | 0.00 | 0.00 | 57 | |
| 20260509220829 | 23 | 243 | 16.1 | 24.1 | 0.00 | 0.00 | 0.00 | 58 | |
| 20260509220627 | 23 | 268 | 11.3 | 20.9 | 0.00 | 0.00 | 0.00 | 59 | |
| 20260509220425 | 23 | 258 | 19.3 | 20.9 | 0.00 | 0.00 | 0.00 | 57 | |
| 20260509220223 | 23 | 270 | 16.1 | 22.5 | 0.00 | 0.00 | 0.00 | 57 | |
| 20260509215819 | 23 | 289 | 14.5 | 20.9 | 0.00 | 0.00 | 0.00 | 58 | |
| 20260509215415 | 23 | 271 | 6.4 | 20.9 | 0.00 | 0.00 | 0.00 | 56 | |
| 20260509215212 | 23 | 243 | 14.5 | 25.7 | 0.00 | 0.00 | 0.00 | 57 | |
| 20260509215009 | 23 | 261 | 12.9 | 25.7 | 0.00 | 0.00 | 0.00 | 59 | |
| 20260509214807 | 22 | 274 | 20.9 | 20.9 | 0.00 | 0.00 | 0.00 | 58 | |
| 20260509214608 | 22 | 262 | 9.7 | 20.9 | 0.00 | 0.00 | 0.00 | 58 | |
| 20260509214405 | 23 | 258 | 19.3 | 20.9 | 0.00 | 0.00 | 0.00 | 58 | |
| 20260509213801 | 23 | 286 | 12.9 | 25.7 | 0.00 | 0.00 | 0.00 | 58 | |
| 20260509213556 | 23 | 257 | 17.7 | 25.7 | 0.00 | 0.00 | 0.00 | 57 | |
| 20260509212749 | 22 | 264 | 19.3 | 22.5 | 0.00 | 0.00 | 0.00 | 57 | |
| 20260509211538 | 23 | 281 | 14.5 | 19.3 | 0.00 | 0.00 | 0.00 | 57 | |
| 20260509211336 | 23 | 246 | 11.3 | 19.3 | 0.00 | 0.00 | 0.00 | 56 | |
| 20260509211133 | 23 | 281 | 12.9 | 24.1 | 0.00 | 0.00 | 0.00 | 58 | |
| 20260509210930 | 23 | 264 | 3.2 | 24.1 | 0.00 | 0.00 | 0.00 | 58 | |
| 20260509210528 | 23 | 234 | 12.9 | 27.4 | 0.00 | 0.00 | 0.00 | 59 | |
| 20260509210326 | 22 | 262 | 16.1 | 27.4 | 0.00 | 0.00 | 0.00 | 59 | |
| 20260509205922 | 23 | 267 | 9.7 | 20.9 | 0.00 | 0.00 | 0.00 | 58 | |
| 20260509205720 | 23 | 278 | 9.7 | 24.1 | 0.00 | 0.00 | 0.00 | 59 | |
| 20260509205517 | 23 | 258 | 12.9 | 24.1 | 0.00 | 0.00 | 0.00 | 59 | |
| 20260509205316 | 23 | 257 | 12.9 | 24.1 | 0.00 | 0.00 | 0.00 | 59 | |
| 20260509205114 | 23 | 270 | 8.0 | 24.1 | 0.00 | 0.00 | 0.00 | 57 | |
| 20260509204912 | 23 | 275 | 6.4 | 24.1 | 0.00 | 0.00 | 0.00 | 58 | |
| 20260509204710 | 23 | 255 | 16.1 | 20.9 | 0.00 | 0.00 | 0.00 | 59 | |
| 20260509204509 | 23 | 298 | 8.0 | 20.9 | 0.00 | 0.00 | 0.00 | 59 | |
| 20260509204103 | 23 | 260 | 16.1 | 22.5 | 0.00 | 0.00 | 0.00 | 58 | |
| 20260509203903 | 23 | 258 | 14.5 | 22.5 | 0.00 | 0.00 | 0.00 | 59 | |
| 20260509203459 | 23 | 274 | 8.0 | 22.5 | 0.00 | 0.00 | 0.00 | 59 | |
| 20260509203257 | 23 | 262 | 17.7 | 22.5 | 0.00 | 0.00 | 0.00 | 59 | |
| 20260509203055 | 23 | 264 | 16.1 | 22.5 | 0.00 | 0.00 | 0.00 | 59 | |
| 20260509202853 | 23 | 248 | 16.1 | 22.5 | 0.00 | 0.00 | 0.00 | 59 | |
| 20260509202651 | 23 | 278 | 3.2 | 22.5 | 0.00 | 0.00 | 0.00 | 60 | |
| 20260509202247 | 23 | 262 | 19.3 | 24.1 | 0.00 | 0.00 | 0.00 | 58 | |
| 20260509202045 | 23 | 251 | 12.9 | 24.1 | 0.00 | 0.00 | 0.00 | 59 | |
| 20260509201843 | 22 | 282 | 8.0 | 24.1 | 0.00 | 0.00 | 0.00 | 60 | |
| 20260509201641 | 22 | 312 | 12.9 | 24.1 | 0.00 | 0.00 | 0.00 | 60 | |
| 20260509201439 | 22 | 281 | 22.5 | 24.1 | 0.00 | 0.00 | 0.00 | 60 | |
| 20260509201237 | 22 | 233 | 9.7 | 20.9 | 0.00 | 0.00 | 0.00 | 61 | |
| 20260509201035 | 22 | 255 | 14.5 | 20.9 | 0.00 | 0.00 | 0.00 | 59 | |
| 20260509200833 | 22 | 271 | 17.7 | 20.9 | 0.00 | 0.00 | 0.00 | 61 | |
| 20260509200631 | 22 | 277 | 16.1 | 19.3 | 0.00 | 0.00 | 0.00 | 58 | |
| 20260509200227 | 22 | 261 | 16.1 | 20.9 | 0.00 | 0.00 | 0.00 | 60 | |
| 20260509195822 | 22 | 265 | 14.5 | 20.9 | 0.00 | 0.00 | 0.00 | 59 | |
| 20260509195419 | 22 | 243 | 9.7 | 20.9 | 0.00 | 0.00 | 0.00 | 59 | |
| 20260509195218 | 22 | 260 | 11.3 | 17.7 | 0.00 | 0.00 | 0.00 | 58 | |
| 20260509195016 | 22 | 275 | 12.9 | 17.7 | 0.00 | 0.00 | 0.00 | 59 | |
| 20260509194815 | 22 | 247 | 1.6 | 17.7 | 0.00 | 0.00 | 0.00 | 58 | |
| 20260509194612 | 22 | 261 | 12.9 | 17.7 | 0.00 | 0.00 | 0.00 | 59 | |
| 20260509194410 | 22 | 73 | 0.0 | 17.7 | 0.00 | 0.00 | 0.00 | 58 | |
| 20260509194004 | 22 | 272 | 4.8 | 19.3 | 0.00 | 0.00 | 0.00 | 61 | |
| 20260509193804 | 21 | 277 | 11.3 | 16.1 | 0.00 | 0.00 | 0.00 | 61 | |
| 20260509193602 | 22 | 274 | 11.3 | 16.1 | 0.00 | 0.00 | 0.00 | 60 | |
| 20260509193400 | 22 | 270 | 6.4 | 16.1 | 0.00 | 0.00 | 0.00 | 59 | |
| 20260509193158 | 22 | 261 | 16.1 | 20.9 | 0.00 | 0.00 | 0.00 | 59 | |
| 20260509192956 | 22 | 272 | 11.3 | 20.9 | 0.00 | 0.00 | 0.00 | 60 | |
| 20260509192754 | 22 | 268 | 12.9 | 17.7 | 0.00 | 0.00 | 0.00 | 61 | |
| 20260509192550 | 22 | 281 | 16.1 | 17.7 | 0.00 | 0.00 | 0.00 | 58 | |
| 20260509192348 | 22 | 254 | 3.2 | 17.7 | 0.00 | 0.00 | 0.00 | 63 | |
| 20260509192148 | 21 | 257 | 0.0 | 16.1 | 0.00 | 0.00 | 0.00 | 64 | |
| 20260509191946 | 21 | 277 | 1.6 | 16.1 | 0.00 | 0.00 | 0.00 | 62 | |
| 20260509191742 | 21 | 285 | 6.4 | 17.7 | 0.00 | 0.00 | 0.00 | 64 | |
| 20260509191542 | 21 | 262 | 11.3 | 17.7 | 0.00 | 0.00 | 0.00 | 62 | |
| 20260509191340 | 21 | 289 | 4.8 | 17.7 | 0.00 | 0.00 | 0.00 | 63 | |
| 20260509190935 | 21 | 277 | 14.5 | 17.7 | 0.00 | 0.00 | 0.00 | 63 | |
| 20260509190331 | 21 | 277 | 12.9 | 17.7 | 0.00 | 0.00 | 0.00 | 66 | |
| 20260509190129 | 20 | 262 | 9.7 | 17.7 | 0.00 | 0.00 | 0.00 | 67 | |
| 20260509185925 | 20 | 264 | 14.5 | 17.7 | 0.00 | 0.00 | 0.00 | 67 | |
| 20260509185724 | 20 | 261 | 9.7 | 19.3 | 0.00 | 0.00 | 0.00 | 67 | |
| 20260509185523 | 20 | 270 | 14.5 | 19.3 | 0.00 | 0.00 | 0.00 | 68 | |
| 20260509185321 | 20 | 237 | 4.8 | 19.3 | 0.00 | 0.00 | 0.00 | 68 | |
| 20260509185117 | 20 | 260 | 12.9 | 17.7 | 0.00 | 0.00 | 0.00 | 68 | |
| 20260509184917 | 20 | 262 | 14.5 | 17.7 | 0.00 | 0.00 | 0.00 | 70 | |
| 20260509184715 | 20 | 281 | 12.9 | 17.7 | 0.00 | 0.00 | 0.00 | 70 | |
| 20260509184511 | 20 | 289 | 11.3 | 17.7 | 0.00 | 0.00 | 0.00 | 70 | |
| 20260509184311 | 19 | 317 | 6.4 | 17.7 | 0.00 | 0.00 | 0.00 | 72 | |
| 20260509184108 | 20 | 260 | 11.3 | 17.7 | 0.00 | 0.00 | 0.00 | 72 | |
| 20260509183907 | 19 | 278 | 11.3 | 17.7 | 0.00 | 0.00 | 0.00 | 72 | |
| 20260509183504 | 19 | 262 | 11.3 | 16.1 | 0.00 | 0.00 | 0.00 | 73 | |
| 20260509183302 | 18 | 323 | 4.8 | 17.7 | 0.00 | 0.00 | 0.00 | 73 | |
| 20260509183100 | 19 | 295 | 8.0 | 17.7 | 0.00 | 0.00 | 0.00 | 75 | |
| 20260509182858 | 18 | 282 | 6.4 | 17.7 | 0.00 | 0.00 | 0.00 | 74 | |
| 20260509182656 | 18 | 277 | 11.3 | 17.7 | 0.00 | 0.00 | 0.00 | 75 | |
| 20260509182452 | 19 | 284 | 16.1 | 17.7 | 0.00 | 0.00 | 0.00 | 75 | |
| 20260509182252 | 18 | 277 | 11.3 | 19.3 | 0.00 | 0.00 | 0.00 | 75 | |
| 20260509182050 | 18 | 274 | 9.7 | 19.3 | 0.00 | 0.00 | 0.00 | 76 | |
| 20260509181847 | 18 | 262 | 14.5 | 19.3 | 0.00 | 0.00 | 0.00 | 76 | |
| 20260509181647 | 18 | 274 | 14.5 | 17.7 | 0.00 | 0.00 | 0.00 | 77 | |
| 20260509181243 | 18 | 275 | 11.3 | 20.9 | 0.00 | 0.00 | 0.00 | 77 | |
| 20260509181041 | 18 | 254 | 14.5 | 20.9 | 0.00 | 0.00 | 0.00 | 78 | |
| 20260509180838 | 18 | 261 | 14.5 | 20.9 | 0.00 | 0.00 | 0.00 | 78 | |
| 20260509180637 | 18 | 260 | 14.5 | 20.9 | 0.00 | 0.00 | 0.00 | 79 | |
| 20260509180233 | 18 | 260 | 20.9 | 17.7 | 0.00 | 0.00 | 0.00 | 78 | |
| 20260509180032 | 18 | 282 | 19.3 | 17.7 | 0.00 | 0.00 | 0.00 | 78 | |
| 20260509175629 | 18 | 272 | 9.7 | 17.7 | 0.00 | 0.00 | 0.00 | 79 | |
| 20260509175426 | 18 | 275 | 12.9 | 17.7 | 0.00 | 0.00 | 0.00 | 79 | |
| 20260509175224 | 18 | 267 | 4.8 | 16.1 | 0.00 | 0.00 | 0.00 | 79 | |
| 20260509175024 | 18 | 275 | 12.9 | 16.1 | 0.00 | 0.00 | 0.00 | 78 | |
| 20260509174818 | 18 | 278 | 6.4 | 16.1 | 0.00 | 0.00 | 0.00 | 79 | |
| 20260509174616 | 18 | 264 | 9.7 | 16.1 | 0.00 | 0.00 | 0.00 | 79 | |
| 20260509174416 | 18 | 288 | 4.8 | 16.1 | 0.00 | 0.00 | 0.00 | 79 | |
| 20260509174214 | 17 | 262 | 8.0 | 17.7 | 0.00 | 0.00 | 0.00 | 80 | |
| 20260509174012 | 17 | 277 | 12.9 | 17.7 | 0.00 | 0.00 | 0.00 | 78 | |
| 20260509173810 | 17 | 319 | 6.4 | 16.1 | 0.00 | 0.00 | 0.00 | 78 | |
| 20260509173608 | 17 | 274 | 4.8 | 16.1 | 0.00 | 0.00 | 0.00 | 80 | |
| 20260509173407 | 17 | 286 | 12.9 | 16.1 | 0.00 | 0.00 | 0.00 | 80 | |
| 20260509173204 | 17 | 285 | 11.3 | 17.7 | 0.00 | 0.00 | 0.00 | 80 | |
| 20260509173002 | 17 | 274 | 6.4 | 17.7 | 0.00 | 0.00 | 0.00 | 81 | |
| 20260509172557 | 17 | 264 | 12.9 | 17.7 | 0.00 | 0.00 | 0.00 | 81 | |
| 20260509172357 | 17 | 282 | 9.7 | 17.7 | 0.00 | 0.00 | 0.00 | 81 | |
| 20260509172155 | 17 | 258 | 9.7 | 16.1 | 0.00 | 0.00 | 0.00 | 80 | |
| 20260509171953 | 17 | 279 | 11.3 | 16.1 | 0.00 | 0.00 | 0.00 | 81 | |
| 20260509171752 | 17 | 279 | 8.0 | 14.5 | 0.00 | 0.00 | 0.00 | 82 | |
| 20260509171550 | 17 | 264 | 8.0 | 14.5 | 0.00 | 0.00 | 0.00 | 83 | |
| 20260509171347 | 16 | 299 | 11.3 | 14.5 | 0.00 | 0.00 | 0.00 | 83 | |
| 20260509171144 | 17 | 275 | 11.3 | 14.5 | 0.00 | 0.00 | 0.00 | 85 | |
| 20260509170742 | 16 | 268 | 9.7 | 16.1 | 0.00 | 0.00 | 0.00 | 86 | |
| 20260509170540 | 16 | 275 | 12.9 | 16.1 | 0.00 | 0.00 | 0.00 | 87 | |
| 20260509170338 | 16 | 275 | 6.4 | 16.1 | 0.00 | 0.00 | 0.00 | 87 | |
| 20260509170136 | 16 | 268 | 4.8 | 14.5 | 0.00 | 0.00 | 0.00 | 88 | |
| 20260509165733 | 16 | 275 | 8.0 | 14.5 | 0.00 | 0.00 | 0.00 | 89 | |
| 20260509165530 | 16 | 322 | 4.8 | 14.5 | 0.00 | 0.00 | 0.00 | 88 | |
| 20260509165126 | 15 | 282 | 3.2 | 12.9 | 0.00 | 0.00 | 0.00 | 91 | |
| 20260509164925 | 15 | 302 | 1.6 | 12.9 | 0.00 | 0.00 | 0.00 | 94 | |
| 20260509164723 | 15 | 275 | 8.0 | 12.9 | 0.00 | 0.00 | 0.00 | 95 | |
| 20260509164318 | 15 | 313 | 4.8 | 11.3 | 0.00 | 0.00 | 0.00 | 95 | |
| 20260509163915 | 15 | 289 | 3.2 | 11.3 | 0.00 | 0.00 | 0.00 | 96 | |
| 20260509163713 | 15 | 275 | 8.0 | 11.3 | 0.00 | 0.00 | 0.00 | 96 | |
| 20260509163512 | 15 | 274 | 6.4 | 11.3 | 0.00 | 0.00 | 0.00 | 97 | |
| 20260509163310 | 14 | 286 | 4.8 | 6.4 | 0.00 | 0.00 | 0.00 | 97 | |
| 20260509163108 | 14 | 279 | 1.6 | 6.4 | 0.00 | 0.00 | 0.00 | 97 | |
| 20260509162906 | 14 | 194 | 0.0 | 6.4 | 0.00 | 0.00 | 0.00 | 97 | |
| 20260509162704 | 14 | 271 | 1.6 | 11.3 | 0.00 | 0.00 | 0.00 | 97 | |
| 20260509162502 | 14 | 286 | 4.8 | 11.3 | 0.00 | 0.00 | 0.00 | 97 | |
| 20260509162058 | 13 | 277 | 6.4 | 8.0 | 0.00 | 0.00 | 0.00 | 97 | |
| 20260509161855 | 13 | 298 | 1.6 | 8.0 | 0.00 | 0.00 | 0.00 | 97 | |
| 20260509161654 | 13 | 313 | 0.0 | 9.7 | 0.00 | 0.00 | 0.00 | 97 | |
| 20260509161452 | 13 | 316 | 4.8 | 9.7 | 0.00 | 0.00 | 0.00 | 97 | |
| 20260509161250 | 13 | 248 | 3.2 | 3.2 | 0.00 | 0.00 | 0.00 | 97 | |
| 20260509161049 | 13 | 285 | 4.8 | 3.2 | 0.00 | 0.00 | 0.00 | 97 | |
| 20260509160847 | 13 | 240 | 0.0 | 3.2 | 0.00 | 0.00 | 0.00 | 97 | |
| 20260509160643 | 13 | 240 | 0.0 | 6.4 | 0.00 | 0.00 | 0.00 | 97 | |
| 20260509160241 | 13 | 292 | 4.8 | 4.8 | 0.00 | 0.00 | 0.00 | 97 | |
| 20260509160039 | 13 | 298 | 3.2 | 4.8 | 0.00 | 0.00 | 0.00 | 97 | |
| 20260509155837 | 13 | 272 | 3.2 | 4.8 | 0.00 | 0.00 | 0.00 | 97 | |
| 20260509155232 | 13 | 261 | 0.0 | 0.0 | 0.00 | 0.00 | 0.00 | 97 | |
| 20260509155030 | 13 | 261 | 0.0 | 0.0 | 0.00 | 0.00 | 0.00 | 97 | |
| 20260509154828 | 13 | 261 | 0.0 | 0.0 | 0.00 | 0.00 | 0.00 | 97 | |
| 20260509154626 | 13 | 261 | 0.0 | 0.0 | 0.00 | 0.00 | 0.00 | 97 | |
| 20260509154424 | 13 | 261 | 0.0 | 0.0 | 0.00 | 0.00 | 0.00 | 97 | |
| 20260509154222 | 13 | 261 | 0.0 | 0.0 | 0.00 | 0.00 | 0.00 | 97 | |
| 20260509154021 | 13 | 261 | 0.0 | 0.0 | 0.00 | 0.00 | 0.00 | 97 | |
| 20260509153817 | 13 | 261 | 0.0 | 0.0 | 0.00 | 0.00 | 0.00 | 97 | |
| 20260509153617 | 13 | 261 | 0.0 | 0.0 | 0.00 | 0.00 | 0.00 | 97 | |
| 20260509152605 | 13 | 286 | 0.0 | 0.0 | 0.00 | 0.00 | 0.00 | 97 | |
| 20260509152203 | 13 | 286 | 0.0 | 0.0 | 0.00 | 0.00 | 0.00 | 97 | |
| 20260509152001 | 13 | 286 | 0.0 | 0.0 | 0.00 | 0.00 | 0.00 | 97 | |
| 20260509151759 | 13 | 286 | 0.0 | 0.0 | 0.00 | 0.00 | 0.00 | 97 | |
| 20260509151557 | 13 | 286 | 0.0 | 0.0 | 0.00 | 0.00 | 0.00 | 97 | |
| 20260509151355 | 13 | 286 | 0.0 | 0.0 | 0.00 | 0.00 | 0.00 | 97 | |
| 20260509151153 | 13 | 286 | 0.0 | 0.0 | 0.00 | 0.00 | 0.00 | 97 | |
| 20260509150951 | 13 | 286 | 0.0 | 0.0 | 0.00 | 0.00 | 0.00 | 97 | |
| 20260509150750 | 12 | 286 | 0.0 | 0.0 | 0.00 | 0.00 | 0.00 | 97 | |
| 20260509150548 | 12 | 286 | 0.0 | 0.0 | 0.00 | 0.00 | 0.00 | 97 | |
| 20260509150346 | 12 | 286 | 0.0 | 0.0 | 0.00 | 0.00 | 0.00 | 97 | |
| 20260509150144 | 12 | 286 | 0.0 | 0.0 | 0.00 | 0.00 | 0.00 | 97 | |
| 20260509145942 | 12 | 286 | 0.0 | 0.0 | 0.00 | 0.00 | 0.00 | 97 | |
| 20260509145537 | 12 | 286 | 0.0 | 0.0 | 0.00 | 0.00 | 0.00 | 97 | |
| 20260509145336 | 12 | 286 | 0.0 | 0.0 | 0.00 | 0.00 | 0.00 | 97 | |
| 20260509145135 | 12 | 286 | 0.0 | 0.0 | 0.00 | 0.00 | 0.00 | 97 | |
| 20260509144933 | 12 | 286 | 0.0 | 0.0 | 0.00 | 0.00 | 0.00 | 97 | |
| 20260509144529 | 12 | 286 | 0.0 | 0.0 | 0.00 | 0.00 | 0.00 | 97 | |
| 20260509144327 | 12 | 286 | 0.0 | 0.0 | 0.00 | 0.00 | 0.00 | 97 | |
| 20260509144125 | 12 | 286 | 0.0 | 0.0 | 0.00 | 0.00 | 0.00 | 97 | |
| 20260509143923 | 12 | 286 | 0.0 | 0.0 | 0.00 | 0.00 | 0.00 | 97 | |
| 20260509143721 | 12 | 286 | 0.0 | 0.0 | 0.00 | 0.00 | 0.00 | 97 | |
| 20260509143115 | 12 | 286 | 0.0 | 0.0 | 0.00 | 0.00 | 0.00 | 97 | |
| 20260509142510 | 12 | 286 | 0.0 | 0.0 | 0.00 | 0.00 | 0.00 | 97 | |
| 20260509142308 | 12 | 286 | 0.0 | 0.0 | 0.00 | 0.00 | 0.00 | 97 | |
| 20260509142106 | 12 | 286 | 0.0 | 0.0 | 0.00 | 0.00 | 0.00 | 97 | |
| 20260509141902 | 12 | 286 | 0.0 | 0.0 | 0.00 | 0.00 | 0.00 | 97 | |
| 20260509141702 | 11 | 286 | 0.0 | 0.0 | 0.00 | 0.00 | 0.00 | 97 | |
| 20260509141500 | 11 | 286 | 0.0 | 0.0 | 0.00 | 0.00 | 0.00 | 97 | |
| 20260509141258 | 11 | 286 | 0.0 | 0.0 | 0.00 | 0.00 | 0.00 | 97 | |
| 20260509141056 | 11 | 286 | 0.0 | 0.0 | 0.00 | 0.00 | 0.00 | 97 | |
| 20260509140854 | 11 | 286 | 0.0 | 0.0 | 0.00 | 0.00 | 0.00 | 97 | |
| 20260509140653 | 11 | 286 | 0.0 | 0.0 | 0.00 | 0.00 | 0.00 | 97 | |
| 20260509140451 | 11 | 286 | 0.0 | 0.0 | 0.00 | 0.00 | 0.00 | 97 | |
| 20260509140249 | 11 | 286 | 0.0 | 0.0 | 0.00 | 0.00 | 0.00 | 97 | |
| 20260509140047 | 11 | 286 | 0.0 | 0.0 | 0.00 | 0.00 | 0.00 | 97 | |
| 20260509135643 | 11 | 286 | 0.0 | 0.0 | 0.00 | 0.00 | 0.00 | 97 | |
| 20260509135441 | 11 | 286 | 0.0 | 0.0 | 0.00 | 0.00 | 0.00 | 97 | |
| 20260509135238 | 11 | 286 | 0.0 | 0.0 | 0.00 | 0.00 | 0.00 | 97 | |
| 20260509134835 | 11 | 286 | 0.0 | 0.0 | 0.00 | 0.00 | 0.00 | 97 | |
| 20260509134634 | 11 | 286 | 0.0 | 0.0 | 0.00 | 0.00 | 0.00 | 97 | |
| 20260509134432 | 11 | 286 | 0.0 | 0.0 | 0.00 | 0.00 | 0.00 | 97 | |
| 20260509134230 | 11 | 286 | 0.0 | 0.0 | 0.00 | 0.00 | 0.00 | 97 | |
| 20260509134026 | 11 | 286 | 0.0 | 0.0 | 0.00 | 0.00 | 0.00 | 97 | |
| 20260509133624 | 11 | 286 | 0.0 | 0.0 | 0.00 | 0.00 | 0.00 | 97 | |
| 20260509133426 | 10 | 286 | 0.0 | 0.0 | 0.00 | 0.00 | 0.00 | 97 | |
| 20260509133221 | 10 | 286 | 0.0 | 0.0 | 0.00 | 0.00 | 0.00 | 97 | |
| 20260509133018 | 11 | 286 | 0.0 | 0.0 | 0.00 | 0.00 | 0.00 | 97 | |
| 20260509132614 | 10 | 286 | 0.0 | 0.0 | 0.00 | 0.00 | 0.00 | 97 | |
| 20260509132413 | 10 | 286 | 0.0 | 0.0 | 0.00 | 0.00 | 0.00 | 97 | |
| 20260509132211 | 11 | 286 | 0.0 | 0.0 | 0.00 | 0.00 | 0.00 | 97 | |
| 20260509132009 | 10 | 286 | 0.0 | 0.0 | 0.00 | 0.00 | 0.00 | 97 | |
| 20260509131807 | 10 | 286 | 0.0 | 0.0 | 0.00 | 0.00 | 0.00 | 97 | |
| 20260509131605 | 10 | 286 | 0.0 | 0.0 | 0.00 | 0.00 | 0.00 | 97 | |
| 20260509131403 | 10 | 286 | 0.0 | 0.0 | 0.00 | 0.00 | 0.00 | 97 | |
| 20260509131201 | 10 | 286 | 0.0 | 0.0 | 0.00 | 0.00 | 0.00 | 97 | |
| 20260509130959 | 11 | 286 | 0.0 | 0.0 | 0.00 | 0.00 | 0.00 | 97 | |
| 20260509130757 | 10 | 286 | 0.0 | 0.0 | 0.00 | 0.00 | 0.00 | 97 | |
| 20260509130555 | 10 | 286 | 0.0 | 0.0 | 0.00 | 0.00 | 0.00 | 97 | |
| 20260509125748 | 10 | 286 | 0.0 | 0.0 | 0.00 | 0.00 | 0.00 | 97 | |
| 20260509124940 | 11 | 286 | 0.0 | 0.0 | 0.00 | 0.00 | 0.00 | 97 | |
| 20260509124739 | 11 | 286 | 0.0 | 0.0 | 0.00 | 0.00 | 0.00 | 97 | |
| 20260509124335 | 11 | 286 | 0.0 | 0.0 | 0.00 | 0.00 | 0.00 | 97 | |
| 20260509124133 | 11 | 286 | 0.0 | 0.0 | 0.00 | 0.00 | 0.00 | 97 | |
| 20260509123931 | 11 | 286 | 0.0 | 0.0 | 0.00 | 0.00 | 0.00 | 97 | |
| 20260509123729 | 11 | 286 | 0.0 | 0.0 | 0.00 | 0.00 | 0.00 | 97 | |
| 20260509123325 | 11 | 286 | 0.0 | 0.0 | 0.00 | 0.00 | 0.00 | 96 | |
| 20260509123123 | 11 | 286 | 0.0 | 0.0 | 0.00 | 0.00 | 0.00 | 96 | |
| 20260509122921 | 11 | 286 | 0.0 | 0.0 | 0.00 | 0.00 | 0.00 | 96 | |
| 20260509122719 | 11 | 286 | 0.0 | 0.0 | 0.00 | 0.00 | 0.00 | 96 | |
| 20260509122516 | 11 | 286 | 0.0 | 0.0 | 0.00 | 0.00 | 0.00 | 97 | |
| 20260509122316 | 11 | 286 | 0.0 | 0.0 | 0.00 | 0.00 | 0.00 | 97 | |
| 20260509122114 | 11 | 286 | 0.0 | 0.0 | 0.00 | 0.00 | 0.00 | 97 | |
| 20260509121911 | 11 | 286 | 0.0 | 0.0 | 0.00 | 0.00 | 0.00 | 96 | |
| 20260509121506 | 11 | 286 | 0.0 | 0.0 | 0.00 | 0.00 | 0.00 | 96 | |
| 20260509121306 | 11 | 286 | 0.0 | 0.0 | 0.00 | 0.00 | 0.00 | 96 | |
| 20260509120700 | 11 | 286 | 0.0 | 0.0 | 0.00 | 0.00 | 0.00 | 96 | |
| 20260509120458 | 11 | 286 | 0.0 | 0.0 | 0.00 | 0.00 | 0.00 | 96 | |
| 20260509120256 | 11 | 286 | 0.0 | 0.0 | 0.00 | 0.00 | 0.00 | 96 | |
| 20260509120055 | 11 | 286 | 0.0 | 0.0 | 0.00 | 0.00 | 0.00 | 96 | |
| 20260509115852 | 11 | 286 | 0.0 | 0.0 | 0.00 | 0.00 | 0.00 | 96 | |
| 20260509115650 | 11 | 286 | 0.0 | 0.0 | 0.00 | 0.00 | 0.00 | 96 | |
| 20260509115449 | 11 | 286 | 0.0 | 0.0 | 0.00 | 0.00 | 0.00 | 96 | |
| 20260509115247 | 11 | 286 | 0.0 | 0.0 | 0.00 | 0.00 | 0.00 | 96 | |
| 20260509115045 | 11 | 286 | 0.0 | 0.0 | 0.00 | 0.00 | 0.00 | 96 | |
| 20260509114843 | 11 | 286 | 0.0 | 0.0 | 0.00 | 0.00 | 0.00 | 96 | |
| 20260509114640 | 11 | 286 | 0.0 | 0.0 | 0.00 | 0.00 | 0.00 | 96 | |
| 20260509114438 | 11 | 286 | 0.0 | 0.0 | 0.00 | 0.00 | 0.00 | 96 | |
| 20260509114237 | 11 | 286 | 0.0 | 0.0 | 0.00 | 0.00 | 0.00 | 96 | |
| 20260509114035 | 11 | 286 | 0.0 | 0.0 | 0.00 | 0.00 | 0.00 | 96 | |
| 20260509113834 | 11 | 286 | 0.0 | 0.0 | 0.00 | 0.00 | 0.00 | 96 | |
| 20260509113430 | 11 | 286 | 0.0 | 0.0 | 0.00 | 0.00 | 0.00 | 96 | |
| 20260509113026 | 11 | 286 | 0.0 | 0.0 | 0.00 | 0.00 | 0.00 | 96 | |
| 20260509112824 | 11 | 286 | 0.0 | 0.0 | 0.00 | 0.00 | 0.00 | 96 | |
| 20260509112622 | 11 | 286 | 0.0 | 0.0 | 0.00 | 0.00 | 0.00 | 96 | |
| 20260509112218 | 11 | 286 | 0.0 | 0.0 | 0.00 | 0.00 | 0.00 | 96 | |
| 20260509112016 | 11 | 286 | 0.0 | 0.0 | 0.00 | 0.00 | 0.00 | 96 | |
| 20260509111613 | 11 | 286 | 0.0 | 0.0 | 0.00 | 0.00 | 0.00 | 96 | |
| 20260509111411 | 11 | 286 | 0.0 | 0.0 | 0.00 | 0.00 | 0.00 | 96 | |
| 20260509111209 | 11 | 286 | 0.0 | 0.0 | 0.00 | 0.00 | 0.00 | 96 | |
| 20260509111006 | 10 | 286 | 0.0 | 0.0 | 0.00 | 0.00 | 0.00 | 96 | |
| 20260509110805 | 11 | 286 | 0.0 | 0.0 | 0.00 | 0.00 | 0.00 | 95 | |
| 20260509110603 | 11 | 286 | 0.0 | 0.0 | 0.00 | 0.00 | 0.00 | 95 | |
| 20260509110359 | 11 | 286 | 0.0 | 0.0 | 0.00 | 0.00 | 0.00 | 95 | |
| 20260509110159 | 11 | 286 | 0.0 | 0.0 | 0.00 | 0.00 | 0.00 | 95 | |
| 20260509105957 | 11 | 286 | 0.0 | 0.0 | 0.00 | 0.00 | 0.00 | 95 | |
| 20260509105755 | 11 | 286 | 0.0 | 0.0 | 0.00 | 0.00 | 0.00 | 95 | |
| 20260509105554 | 11 | 286 | 0.0 | 0.0 | 0.00 | 0.00 | 0.00 | 95 | |
| 20260509105351 | 11 | 286 | 0.0 | 0.0 | 0.00 | 0.00 | 0.00 | 95 | |
| 20260509105149 | 11 | 286 | 0.0 | 0.0 | 0.00 | 0.00 | 0.00 | 95 | |
| 20260509104946 | 11 | 286 | 0.0 | 0.0 | 0.00 | 0.00 | 0.00 | 95 | |
| 20260509104746 | 11 | 286 | 0.0 | 0.0 | 0.00 | 0.00 | 0.00 | 95 | |
| 20260509104542 | 11 | 286 | 0.0 | 0.0 | 0.00 | 0.00 | 0.00 | 95 | |
| 20260509104342 | 11 | 286 | 0.0 | 0.0 | 0.00 | 0.00 | 0.00 | 95 | |
| 20260509104140 | 11 | 286 | 0.0 | 0.0 | 0.00 | 0.00 | 0.00 | 95 | |
| 20260509103938 | 11 | 286 | 0.0 | 0.0 | 0.00 | 0.00 | 0.00 | 95 | |
| 20260509103736 | 11 | 286 | 0.0 | 0.0 | 0.00 | 0.00 | 0.00 | 95 | |
| 20260509103533 | 11 | 286 | 0.0 | 0.0 | 0.00 | 0.00 | 0.00 | 95 | |
| 20260509102727 | 11 | 286 | 0.0 | 0.0 | 0.00 | 0.00 | 0.00 | 95 | |
| 20260509102121 | 11 | 286 | 0.0 | 0.0 | 0.00 | 0.00 | 0.00 | 95 | |
| 20260509101717 | 11 | 286 | 0.0 | 0.0 | 0.00 | 0.00 | 0.00 | 95 | |
| 20260509101515 | 11 | 286 | 0.0 | 0.0 | 0.00 | 0.00 | 0.00 | 95 | |
| 20260509101313 | 11 | 260 | 0.0 | 0.0 | 0.00 | 0.00 | 0.00 | 94 | |
| 20260509101111 | 11 | 260 | 0.0 | 0.0 | 0.00 | 0.00 | 0.00 | 95 | |
| 20260509100910 | 11 | 260 | 0.0 | 0.0 | 0.00 | 0.00 | 0.00 | 95 | |
| 20260509100708 | 12 | 260 | 0.0 | 0.0 | 0.00 | 0.00 | 0.00 | 95 | |
| 20260509095900 | 12 | 260 | 0.0 | 0.0 | 0.00 | 0.00 | 0.00 | 95 | |
| 20260509095456 | 12 | 260 | 0.0 | 0.0 | 0.00 | 0.00 | 0.00 | 94 | |
| 20260509095254 | 12 | 260 | 0.0 | 0.0 | 0.00 | 0.00 | 0.00 | 94 | |
| 20260509094849 | 12 | 260 | 0.0 | 0.0 | 0.00 | 0.00 | 0.00 | 94 | |
| 20260509094647 | 12 | 260 | 0.0 | 0.0 | 0.00 | 0.00 | 0.00 | 94 | |
| 20260509094447 | 12 | 260 | 0.0 | 0.0 | 0.00 | 0.00 | 0.00 | 94 | |
| 20260509094245 | 12 | 260 | 0.0 | 0.0 | 0.00 | 0.00 | 0.00 | 95 | |
| 20260509094043 | 12 | 260 | 0.0 | 0.0 | 0.00 | 0.00 | 0.00 | 94 | |
| 20260509093841 | 12 | 260 | 0.0 | 0.0 | 0.00 | 0.00 | 0.00 | 94 | |
| 20260509093639 | 12 | 260 | 0.0 | 0.0 | 0.00 | 0.00 | 0.00 | 94 | |
| 20260509093235 | 12 | 260 | 0.0 | 0.0 | 0.00 | 0.00 | 0.00 | 94 | |
| 20260509093033 | 12 | 260 | 0.0 | 0.0 | 0.00 | 0.00 | 0.00 | 94 | |
| 20260509092831 | 12 | 260 | 0.0 | 0.0 | 0.00 | 0.00 | 0.00 | 94 | |
| 20260509092427 | 12 | 260 | 0.0 | 0.0 | 0.00 | 0.00 | 0.00 | 94 | |
| 20260509092226 | 12 | 260 | 0.0 | 0.0 | 0.00 | 0.00 | 0.00 | 94 | |
| 20260509092023 | 12 | 260 | 0.0 | 0.0 | 0.00 | 0.00 | 0.00 | 94 | |
| 20260509091620 | 12 | 260 | 0.0 | 0.0 | 0.00 | 0.00 | 0.00 | 94 | |
| 20260509091417 | 12 | 260 | 0.0 | 0.0 | 0.00 | 0.00 | 0.00 | 94 | |
| 20260509091014 | 12 | 260 | 0.0 | 0.0 | 0.00 | 0.00 | 0.00 | 94 | |
| 20260509090812 | 12 | 260 | 0.0 | 0.0 | 0.00 | 0.00 | 0.00 | 94 | |
| 20260509090611 | 12 | 260 | 0.0 | 0.0 | 0.00 | 0.00 | 0.00 | 94 | |
| 20260509090409 | 12 | 260 | 0.0 | 0.0 | 0.00 | 0.00 | 0.00 | 94 | |
| 20260509090207 | 12 | 260 | 0.0 | 0.0 | 0.00 | 0.00 | 0.00 | 94 | |
| 20260509085803 | 12 | 260 | 0.0 | 0.0 | 0.00 | 0.00 | 0.00 | 94 | |
| 20260509085601 | 12 | 260 | 0.0 | 0.0 | 0.00 | 0.00 | 0.00 | 94 | |
| 20260509085359 | 12 | 260 | 0.0 | 0.0 | 0.00 | 0.00 | 0.00 | 94 | |
| 20260509085157 | 12 | 260 | 0.0 | 0.0 | 0.00 | 0.00 | 0.00 | 93 | |
| 20260509084955 | 12 | 260 | 0.0 | 0.0 | 0.00 | 0.00 | 0.00 | 93 | |
| 20260509084753 | 12 | 260 | 0.0 | 0.0 | 0.00 | 0.00 | 0.00 | 93 | |
| 20260509084551 | 12 | 260 | 0.0 | 0.0 | 0.00 | 0.00 | 0.00 | 93 | |
| 20260509084148 | 12 | 260 | 0.0 | 0.0 | 0.00 | 0.00 | 0.00 | 93 | |
| 20260509083946 | 12 | 260 | 0.0 | 0.0 | 0.00 | 0.00 | 0.00 | 92 | |
| 20260509083542 | 12 | 260 | 0.0 | 0.0 | 0.00 | 0.00 | 0.00 | 93 | |
| 20260509083340 | 12 | 260 | 0.0 | 0.0 | 0.00 | 0.00 | 0.00 | 93 | |
| 20260509082935 | 12 | 260 | 0.0 | 0.0 | 0.00 | 0.00 | 0.00 | 92 | |
| 20260509082734 | 12 | 260 | 0.0 | 0.0 | 0.00 | 0.00 | 0.00 | 93 | |
| 20260509082532 | 12 | 260 | 0.0 | 0.0 | 0.00 | 0.00 | 0.00 | 93 | |
| 20260509082331 | 12 | 260 | 0.0 | 0.0 | 0.00 | 0.00 | 0.00 | 93 | |
| 20260509082129 | 12 | 260 | 0.0 | 0.0 | 0.00 | 0.00 | 0.00 | 93 | |
| 20260509081926 | 12 | 260 | 0.0 | 0.0 | 0.00 | 0.00 | 0.00 | 93 | |
| 20260509081523 | 12 | 260 | 0.0 | 0.0 | 0.00 | 0.00 | 0.00 | 92 | |
| 20260509081321 | 12 | 260 | 0.0 | 0.0 | 0.00 | 0.00 | 0.00 | 92 | |
| 20260509080915 | 12 | 260 | 0.0 | 0.0 | 0.00 | 0.00 | 0.00 | 92 | |
| 20260509080715 | 12 | 260 | 0.0 | 0.0 | 0.00 | 0.00 | 0.00 | 92 | |
| 20260509080513 | 12 | 260 | 0.0 | 0.0 | 0.00 | 0.00 | 0.00 | 92 | |
| 20260509080311 | 12 | 260 | 0.0 | 0.0 | 0.00 | 0.00 | 0.00 | 92 | |
| 20260509075908 | 12 | 260 | 0.0 | 0.0 | 0.00 | 0.00 | 0.00 | 92 | |
| 20260509075706 | 13 | 260 | 0.0 | 0.0 | 0.00 | 0.00 | 0.00 | 92 | |
| 20260509075504 | 13 | 260 | 0.0 | 0.0 | 0.00 | 0.00 | 0.00 | 92 | |
| 20260509075305 | 13 | 260 | 0.0 | 0.0 | 0.00 | 0.00 | 0.00 | 92 | |
| 20260509075101 | 13 | 260 | 0.0 | 0.0 | 0.00 | 0.00 | 0.00 | 92 | |
| 20260509074656 | 13 | 260 | 0.0 | 0.0 | 0.00 | 0.00 | 0.00 | 91 | |
| 20260509074454 | 13 | 260 | 0.0 | 0.0 | 0.00 | 0.00 | 0.00 | 91 | |
| 20260509074252 | 13 | 260 | 0.0 | 0.0 | 0.00 | 0.00 | 0.00 | 91 | |
| 20260509074051 | 13 | 260 | 0.0 | 0.0 | 0.00 | 0.00 | 0.00 | 91 | |
| 20260509073849 | 13 | 260 | 0.0 | 0.0 | 0.00 | 0.00 | 0.00 | 91 | |
| 20260509073241 | 13 | 260 | 0.0 | 0.0 | 0.00 | 0.00 | 0.00 | 91 | |
| 20260509073041 | 13 | 260 | 0.0 | 0.0 | 0.00 | 0.00 | 0.00 | 91 | |
| 20260509072839 | 13 | 260 | 0.0 | 0.0 | 0.00 | 0.00 | 0.00 | 91 | |
| 20260509072637 | 13 | 260 | 0.0 | 0.0 | 0.00 | 0.00 | 0.00 | 91 | |
| 20260509072435 | 13 | 260 | 0.0 | 0.0 | 0.00 | 0.00 | 0.00 | 91 | |
| 20260509071830 | 13 | 260 | 0.0 | 0.0 | 0.00 | 0.00 | 0.00 | 90 | |
| 20260509071628 | 13 | 260 | 0.0 | 0.0 | 0.00 | 0.00 | 0.00 | 90 | |
| 20260509071426 | 13 | 260 | 0.0 | 0.0 | 0.00 | 0.00 | 0.00 | 90 | |
| 20260509071223 | 13 | 260 | 0.0 | 0.0 | 0.00 | 0.00 | 0.00 | 90 | |
| 20260509071022 | 13 | 260 | 0.0 | 0.0 | 0.00 | 0.00 | 0.00 | 90 | |
| 20260509070820 | 13 | 260 | 0.0 | 0.0 | 0.00 | 0.00 | 0.00 | 90 | |
| 20260509070416 | 13 | 260 | 0.0 | 0.0 | 0.00 | 0.00 | 0.00 | 90 | |
| 20260509070012 | 13 | 260 | 0.0 | 0.0 | 0.00 | 0.00 | 0.00 | 90 | |
| 20260509065405 | 13 | 260 | 0.0 | 0.0 | 0.00 | 0.00 | 0.00 | 90 | |
| 20260509065205 | 13 | 260 | 0.0 | 0.0 | 0.00 | 0.00 | 0.00 | 90 | |
| 20260509065003 | 13 | 260 | 0.0 | 0.0 | 0.00 | 0.00 | 0.00 | 90 | |
| 20260509064800 | 13 | 260 | 0.0 | 0.0 | 0.00 | 0.00 | 0.00 | 90 | |
| 20260509064357 | 13 | 260 | 0.0 | 0.0 | 0.00 | 0.00 | 0.00 | 90 | |
| 20260509064155 | 13 | 260 | 0.0 | 0.0 | 0.00 | 0.00 | 0.00 | 90 | |
| 20260509063953 | 13 | 260 | 0.0 | 0.0 | 0.00 | 0.00 | 0.00 | 89 | |
| 20260509063751 | 13 | 260 | 0.0 | 0.0 | 0.00 | 0.00 | 0.00 | 89 | |
| 20260509063549 | 13 | 260 | 0.0 | 0.0 | 0.00 | 0.00 | 0.00 | 89 | |
| 20260509063348 | 13 | 260 | 0.0 | 0.0 | 0.00 | 0.00 | 0.00 | 89 | |
| 20260509063144 | 13 | 260 | 0.0 | 0.0 | 0.00 | 0.00 | 0.00 | 89 | |
| 20260509062944 | 14 | 260 | 0.0 | 0.0 | 0.00 | 0.00 | 0.00 | 89 | |
| 20260509062740 | 14 | 260 | 0.0 | 0.0 | 0.00 | 0.00 | 0.00 | 89 | |
| 20260509062540 | 14 | 260 | 0.0 | 0.0 | 0.00 | 0.00 | 0.00 | 89 | |
| 20260509062338 | 14 | 260 | 0.0 | 0.0 | 0.00 | 0.00 | 0.00 | 89 | |
| 20260509062136 | 14 | 260 | 0.0 | 4.8 | 0.00 | 0.00 | 0.00 | 89 | |
| 20260509061732 | 14 | 295 | 1.6 | 4.8 | 0.00 | 0.00 | 0.00 | 89 | |
| 20260509061531 | 14 | 298 | 1.6 | 4.8 | 0.00 | 0.00 | 0.00 | 89 | |
| 20260509061127 | 14 | 296 | 3.2 | 4.8 | 0.00 | 0.00 | 0.00 | 89 | |
| 20260509060723 | 14 | 300 | 1.6 | 4.8 | 0.00 | 0.00 | 0.00 | 89 | |
| 20260509060519 | 14 | 305 | 4.8 | 4.8 | 0.00 | 0.00 | 0.00 | 89 | |
| 20260509060319 | 14 | 306 | 3.2 | 0.0 | 0.00 | 0.00 | 0.00 | 89 | |
| 20260509060117 | 14 | 298 | 3.2 | 0.0 | 0.00 | 0.00 | 0.00 | 88 | |
| 20260509055713 | 14 | 268 | 0.0 | 0.0 | 0.00 | 0.00 | 0.00 | 89 | |
| 20260509055309 | 14 | 268 | 0.0 | 0.0 | 0.00 | 0.00 | 0.00 | 88 | |
| 20260509055108 | 14 | 268 | 0.0 | 0.0 | 0.00 | 0.00 | 0.00 | 88 | |
| 20260509054502 | 14 | 268 | 0.0 | 0.0 | 0.00 | 0.00 | 0.00 | 88 | |
| 20260509054300 | 14 | 268 | 0.0 | 0.0 | 0.00 | 0.00 | 0.00 | 88 | |
| 20260509054058 | 14 | 268 | 0.0 | 0.0 | 0.00 | 0.00 | 0.00 | 88 | |
| 20260509053856 | 14 | 268 | 0.0 | 0.0 | 0.00 | 0.00 | 0.00 | 88 | |
| 20260509053654 | 14 | 268 | 0.0 | 0.0 | 0.00 | 0.00 | 0.00 | 88 | |
| 20260509053452 | 14 | 268 | 0.0 | 0.0 | 0.00 | 0.00 | 0.00 | 88 | |
| 20260509053251 | 14 | 268 | 0.0 | 0.0 | 0.00 | 0.00 | 0.00 | 88 | |
| 20260509053048 | 14 | 268 | 0.0 | 0.0 | 0.00 | 0.00 | 0.00 | 87 | |
| 20260509052846 | 14 | 268 | 0.0 | 0.0 | 0.00 | 0.00 | 0.00 | 87 | |
| 20260509052443 | 15 | 268 | 0.0 | 0.0 | 0.00 | 0.00 | 0.00 | 87 | |
| 20260509051837 | 15 | 268 | 0.0 | 0.0 | 0.00 | 0.00 | 0.00 | 86 | |
| 20260509051231 | 15 | 268 | 0.0 | 0.0 | 0.00 | 0.00 | 0.00 | 86 | |
| 20260509051029 | 15 | 268 | 0.0 | 0.0 | 0.00 | 0.00 | 0.00 | 86 | |
| 20260509050828 | 15 | 268 | 0.0 | 0.0 | 0.00 | 0.00 | 0.00 | 86 | |
| 20260509050624 | 15 | 268 | 0.0 | 0.0 | 0.00 | 0.00 | 0.00 | 86 | |
| 20260509050424 | 15 | 268 | 0.0 | 0.0 | 0.00 | 0.00 | 0.00 | 85 | |
| 20260509050222 | 15 | 268 | 0.0 | 0.0 | 0.00 | 0.00 | 0.00 | 85 | |
| 20260509050020 | 15 | 268 | 0.0 | 0.0 | 0.00 | 0.00 | 0.00 | 85 | |
| 20260509045818 | 15 | 268 | 0.0 | 0.0 | 0.00 | 0.00 | 0.00 | 86 | |
| 20260509045616 | 15 | 268 | 0.0 | 0.0 | 0.00 | 0.00 | 0.00 | 86 | |
| 20260509045414 | 15 | 268 | 0.0 | 0.0 | 0.00 | 0.00 | 0.00 | 86 | |
| 20260509045011 | 15 | 268 | 0.0 | 0.0 | 0.00 | 0.00 | 0.00 | 86 | |
| 20260509044809 | 15 | 268 | 0.0 | 0.0 | 0.00 | 0.00 | 0.00 | 86 | |
| 20260509044405 | 15 | 268 | 0.0 | 0.0 | 0.00 | 0.00 | 0.00 | 86 | |
| 20260509044203 | 15 | 268 | 0.0 | 0.0 | 0.00 | 0.00 | 0.00 | 85 | |
| 20260509044001 | 15 | 268 | 0.0 | 0.0 | 0.00 | 0.00 | 0.00 | 85 | |
| 20260509043759 | 15 | 268 | 0.0 | 0.0 | 0.00 | 0.00 | 0.00 | 85 | |
| 20260509043557 | 15 | 268 | 0.0 | 0.0 | 0.00 | 0.00 | 0.00 | 85 | |
| 20260509043355 | 15 | 268 | 0.0 | 0.0 | 0.00 | 0.00 | 0.00 | 85 | |
| 20260509043153 | 15 | 268 | 0.0 | 0.0 | 0.00 | 0.00 | 0.00 | 85 | |
| 20260509042951 | 15 | 268 | 0.0 | 0.0 | 0.00 | 0.00 | 0.00 | 85 | |
| 20260509042751 | 15 | 268 | 0.0 | 0.0 | 0.00 | 0.00 | 0.00 | 85 | |
| 20260509042546 | 15 | 268 | 0.0 | 0.0 | 0.00 | 0.00 | 0.00 | 84 | |
| 20260509042144 | 15 | 268 | 0.0 | 0.0 | 0.00 | 0.00 | 0.00 | 84 | |
| 20260509041740 | 15 | 268 | 0.0 | 0.0 | 0.00 | 0.00 | 0.00 | 84 | |
| 20260509041538 | 15 | 268 | 0.0 | 0.0 | 0.00 | 0.00 | 0.00 | 84 | |
| 20260509041336 | 15 | 268 | 0.0 | 0.0 | 0.00 | 0.00 | 0.00 | 84 | |
| 20260509041134 | 15 | 268 | 0.0 | 0.0 | 0.00 | 0.00 | 0.00 | 83 | |
| 20260509040931 | 16 | 268 | 0.0 | 0.0 | 0.00 | 0.00 | 0.00 | 83 | |
| 20260509040731 | 16 | 268 | 0.0 | 0.0 | 0.00 | 0.00 | 0.00 | 83 | |
| 20260509040529 | 16 | 268 | 0.0 | 0.0 | 0.00 | 0.00 | 0.00 | 83 | |
| 20260509040327 | 16 | 268 | 0.0 | 0.0 | 0.00 | 0.00 | 0.00 | 83 | |
| 20260509040123 | 16 | 268 | 0.0 | 0.0 | 0.00 | 0.00 | 0.00 | 83 | |
| 20260509035923 | 16 | 268 | 0.0 | 0.0 | 0.00 | 0.00 | 0.00 | 83 | |
| 20260509035720 | 16 | 268 | 0.0 | 0.0 | 0.00 | 0.00 | 0.00 | 83 | |
| 20260509035519 | 16 | 268 | 0.0 | 0.0 | 0.00 | 0.00 | 0.00 | 84 | |
| 20260509035317 | 16 | 268 | 0.0 | 0.0 | 0.00 | 0.00 | 0.00 | 83 | |
| 20260509035115 | 16 | 268 | 0.0 | 0.0 | 0.00 | 0.00 | 0.00 | 83 | |
| 20260509034711 | 16 | 268 | 0.0 | 4.8 | 0.00 | 0.00 | 0.00 | 83 | |
| 20260509034509 | 16 | 268 | 0.0 | 4.8 | 0.00 | 0.00 | 0.00 | 84 | |
| 20260509034106 | 16 | 275 | 1.6 | 4.8 | 0.00 | 0.00 | 0.00 | 83 | |
| 20260509033903 | 16 | 295 | 4.8 | 4.8 | 0.00 | 0.00 | 0.00 | 83 | |
| 20260509033257 | 16 | 257 | 0.0 | 1.6 | 0.00 | 0.00 | 0.00 | 83 | |
| 20260509033056 | 16 | 257 | 0.0 | 1.6 | 0.00 | 0.00 | 0.00 | 83 | |
| 20260509032853 | 16 | 257 | 0.0 | 1.6 | 0.00 | 0.00 | 0.00 | 83 | |
| 20260509032250 | 16 | 272 | 1.6 | 8.0 | 0.00 | 0.00 | 0.00 | 83 | |
| 20260509032046 | 16 | 274 | 3.2 | 8.0 | 0.00 | 0.00 | 0.00 | 83 | |
| 20260509031844 | 16 | 277 | 3.2 | 8.0 | 0.00 | 0.00 | 0.00 | 83 | |
| 20260509031440 | 16 | 293 | 4.8 | 8.0 | 0.00 | 0.00 | 0.00 | 82 | |
| 20260509030835 | 16 | 296 | 3.2 | 8.0 | 0.00 | 0.00 | 0.00 | 82 | |
| 20260509030633 | 16 | 282 | 3.2 | 9.7 | 0.00 | 0.00 | 0.00 | 82 | |
| 20260509030229 | 16 | 286 | 4.8 | 9.7 | 0.00 | 0.00 | 0.00 | 82 | |
| 20260509030027 | 16 | 279 | 6.4 | 9.7 | 0.00 | 0.00 | 0.00 | 81 | |
| 20260509025826 | 16 | 284 | 6.4 | 9.7 | 0.00 | 0.00 | 0.00 | 81 | |
| 20260509025624 | 16 | 298 | 6.4 | 8.0 | 0.00 | 0.00 | 0.00 | 81 | |
| 20260509025422 | 16 | 281 | 8.0 | 8.0 | 0.00 | 0.00 | 0.00 | 81 | |
| 20260509025220 | 17 | 288 | 4.8 | 9.7 | 0.00 | 0.00 | 0.00 | 80 | |
| 20260509025018 | 17 | 288 | 4.8 | 9.7 | 0.00 | 0.00 | 0.00 | 80 | |
| 20260509024614 | 17 | 295 | 4.8 | 8.0 | 0.00 | 0.00 | 0.00 | 80 | |
| 20260509024211 | 17 | 288 | 6.4 | 8.0 | 0.00 | 0.00 | 0.00 | 79 | |
| 20260509024009 | 17 | 298 | 4.8 | 8.0 | 0.00 | 0.00 | 0.00 | 79 | |
| 20260509023806 | 17 | 286 | 4.8 | 8.0 | 0.00 | 0.00 | 0.00 | 79 | |
| 20260509023604 | 17 | 296 | 4.8 | 8.0 | 0.00 | 0.00 | 0.00 | 79 | |
| 20260509023402 | 17 | 286 | 1.6 | 8.0 | 0.00 | 0.00 | 0.00 | 78 | |
| 20260509023006 | 17 | 300 | 4.8 | 9.7 | 0.00 | 0.00 | 0.00 | 78 | |
| 20260509022757 | 17 | 281 | 6.4 | 9.7 | 0.00 | 0.00 | 0.00 | 78 | |
| 20260509021747 | 17 | 289 | 6.4 | 9.7 | 0.00 | 0.00 | 0.00 | 77 | |
| 20260509021141 | 17 | 288 | 8.0 | 11.3 | 0.00 | 0.00 | 0.00 | 77 | |
| 20260509020940 | 17 | 268 | 9.7 | 11.3 | 0.00 | 0.00 | 0.00 | 77 | |
| 20260509020738 | 17 | 274 | 6.4 | 11.3 | 0.00 | 0.00 | 0.00 | 77 | |
| 20260509020536 | 17 | 267 | 9.7 | 11.3 | 0.00 | 0.00 | 0.00 | 76 | |
| 20260509020334 | 17 | 293 | 4.8 | 11.3 | 0.00 | 0.00 | 0.00 | 76 | |
| 20260509020132 | 18 | 282 | 8.0 | 14.5 | 0.00 | 0.00 | 0.00 | 76 | |
| 20260509015728 | 18 | 291 | 9.7 | 12.9 | 0.00 | 0.00 | 0.00 | 75 | |
| 20260509015325 | 18 | 277 | 4.8 | 12.9 | 0.00 | 0.00 | 0.00 | 75 | |
| 20260509015123 | 18 | 274 | 8.0 | 16.1 | 0.00 | 0.00 | 0.00 | 75 | |
| 20260509014921 | 18 | 260 | 11.3 | 16.1 | 0.00 | 0.00 | 0.00 | 74 | |
| 20260509014719 | 18 | 275 | 8.0 | 14.5 | 0.00 | 0.00 | 0.00 | 75 | |
| 20260509014517 | 18 | 284 | 8.0 | 14.5 | 0.00 | 0.00 | 0.00 | 75 | |
| 20260509014315 | 18 | 260 | 9.7 | 14.5 | 0.00 | 0.00 | 0.00 | 75 | |
| 20260509014113 | 18 | 264 | 11.3 | 14.5 | 0.00 | 0.00 | 0.00 | 74 | |
| 20260509013912 | 18 | 262 | 9.7 | 14.5 | 0.00 | 0.00 | 0.00 | 74 | |
| 20260509013709 | 18 | 270 | 11.3 | 16.1 | 0.00 | 0.00 | 0.00 | 74 | |
| 20260509013508 | 18 | 292 | 9.7 | 16.1 | 0.00 | 0.00 | 0.00 | 74 | |
| 20260509013306 | 18 | 271 | 11.3 | 16.1 | 0.00 | 0.00 | 0.00 | 74 | |
| 20260509013104 | 18 | 293 | 11.3 | 16.1 | 0.00 | 0.00 | 0.00 | 73 | |
| 20260509012903 | 18 | 267 | 12.9 | 16.1 | 0.00 | 0.00 | 0.00 | 73 | |
| 20260509012700 | 18 | 264 | 14.5 | 17.7 | 0.00 | 0.00 | 0.00 | 72 | |
| 20260509012458 | 19 | 262 | 8.0 | 17.7 | 0.00 | 0.00 | 0.00 | 72 | |
| 20260509012256 | 18 | 272 | 9.7 | 17.7 | 0.00 | 0.00 | 0.00 | 72 | |
| 20260509011853 | 19 | 267 | 9.7 | 17.7 | 0.00 | 0.00 | 0.00 | 71 | |
| 20260509011651 | 19 | 253 | 9.7 | 16.1 | 0.00 | 0.00 | 0.00 | 71 | |
| 20260509011448 | 19 | 272 | 11.3 | 16.1 | 0.00 | 0.00 | 0.00 | 71 | |
| 20260509011045 | 18 | 267 | 16.1 | 19.3 | 0.00 | 0.00 | 0.00 | 72 | |
| 20260509010843 | 19 | 271 | 9.7 | 19.3 | 0.00 | 0.00 | 0.00 | 72 | |
| 20260509010439 | 19 | 271 | 14.5 | 20.9 | 0.00 | 0.00 | 0.00 | 71 | |
| 20260509005834 | 19 | 262 | 14.5 | 22.5 | 0.00 | 0.00 | 0.00 | 70 | |
| 20260509005430 | 20 | 279 | 9.7 | 19.3 | 0.00 | 0.00 | 0.00 | 69 | |
| 20260509004420 | 20 | 264 | 8.0 | 20.9 | 0.00 | 0.00 | 0.00 | 68 | |
| 20260509004017 | 20 | 261 | 16.1 | 25.7 | 0.00 | 0.00 | 0.00 | 68 | |
| 20260509003612 | 20 | 254 | 12.9 | 22.5 | 0.00 | 0.00 | 0.00 | 67 | |
| 20260509003208 | 20 | 278 | 11.3 | 20.9 | 0.00 | 0.00 | 0.00 | 67 | |
| 20260509003007 | 20 | 255 | 11.3 | 20.9 | 0.00 | 0.00 | 0.00 | 66 | |
| 20260509002805 | 20 | 268 | 12.9 | 20.9 | 0.00 | 0.00 | 0.00 | 67 | |
| 20260509002603 | 20 | 262 | 9.7 | 20.9 | 0.00 | 0.00 | 0.00 | 67 | |
| 20260509002401 | 20 | 264 | 16.1 | 20.9 | 0.00 | 0.00 | 0.00 | 67 | |
| 20260509002158 | 20 | 278 | 19.3 | 19.3 | 0.00 | 0.00 | 0.00 | 66 | |
| 20260509001957 | 20 | 291 | 12.9 | 19.3 | 0.00 | 0.00 | 0.00 | 67 | |
| 20260509001755 | 20 | 261 | 14.5 | 17.7 | 0.00 | 0.00 | 0.00 | 66 | |
| 20260509001351 | 21 | 291 | 9.7 | 17.7 | 0.00 | 0.00 | 0.00 | 65 | |
| 20260509000947 | 21 | 278 | 12.9 | 19.3 | 0.00 | 0.00 | 0.00 | 64 | |
| 20260509000745 | 21 | 262 | 12.9 | 17.7 | 0.00 | 0.00 | 0.00 | 63 | |
| 20260509000341 | 21 | 284 | 11.3 | 17.7 | 0.00 | 0.00 | 0.00 | 63 | |
| 20260508235736 | 21 | 254 | 16.1 | 17.7 | 0.00 | 0.00 | 0.00 | 63 | |
| 20260508235533 | 21 | 272 | 6.4 | 17.7 | 0.00 | 0.00 | 0.00 | 64 | |
| 20260508235332 | 21 | 258 | 8.0 | 17.7 | 0.00 | 0.00 | 0.00 | 62 | |
| 20260508234928 | 21 | 323 | 6.4 | 20.9 | 0.00 | 0.00 | 0.00 | 63 | |
| 20260508234725 | 21 | 251 | 4.8 | 17.7 | 0.00 | 0.00 | 0.00 | 63 | |
| 20260508234524 | 21 | 281 | 14.5 | 17.7 | 0.00 | 0.00 | 0.00 | 62 | |
| 20260508234321 | 22 | 268 | 12.9 | 17.7 | 0.00 | 0.00 | 0.00 | 62 | |
| 20260508234120 | 22 | 279 | 14.5 | 19.3 | 0.00 | 0.00 | 0.00 | 63 | |
| 20260508233312 | 22 | 265 | 17.7 | 16.1 | 0.00 | 0.00 | 0.00 | 61 | |
| 20260508233110 | 22 | 267 | 11.3 | 16.1 | 0.00 | 0.00 | 0.00 | 62 | |
| 20260508232908 | 22 | 241 | 8.0 | 16.1 | 0.00 | 0.00 | 0.00 | 62 | |
| 20260508232706 | 22 | 255 | 14.5 | 17.7 | 0.00 | 0.00 | 0.00 | 61 | |
| 20260508232504 | 22 | 253 | 8.0 | 17.7 | 0.00 | 0.00 | 0.00 | 62 | |
| 20260508232306 | 21 | 257 | 12.9 | 24.1 | 0.00 | 0.00 | 0.00 | 63 | |
| 20260508232100 | 21 | 279 | 16.1 | 24.1 | 0.00 | 0.00 | 0.00 | 63 | |
| 20260508231858 | 21 | 270 | 14.5 | 24.1 | 0.00 | 0.00 | 0.00 | 63 | |
| 20260508231657 | 21 | 279 | 12.9 | 22.5 | 0.00 | 0.00 | 0.00 | 63 | |
| 20260508231455 | 21 | 262 | 14.5 | 22.5 | 0.00 | 0.00 | 0.00 | 63 | |
| 20260508231252 | 21 | 268 | 14.5 | 22.5 | 0.00 | 0.00 | 0.00 | 63 | |
| 20260508230849 | 21 | 296 | 9.7 | 22.5 | 0.00 | 0.00 | 0.00 | 62 | |
| 20260508230444 | 22 | 272 | 17.7 | 17.7 | 0.00 | 0.00 | 0.00 | 60 | |
| 20260508230242 | 22 | 279 | 6.4 | 19.3 | 0.00 | 0.00 | 0.00 | 61 | |
| 20260508230040 | 22 | 284 | 11.3 | 19.3 | 0.00 | 0.00 | 0.00 | 60 | |
| 20260508225435 | 22 | 239 | 14.5 | 17.7 | 0.00 | 0.00 | 0.00 | 61 | |
| 20260508225233 | 22 | 262 | 12.9 | 17.7 | 0.00 | 0.00 | 0.00 | 60 | |
| 20260508224828 | 22 | 264 | 16.1 | 17.7 | 0.00 | 0.00 | 0.00 | 61 | |
| 20260508224627 | 22 | 241 | 11.3 | 20.9 | 0.00 | 0.00 | 0.00 | 61 | |
| 20260508224021 | 21 | 272 | 14.5 | 24.1 | 0.00 | 0.00 | 0.00 | 61 | |
| 20260508223819 | 22 | 264 | 12.9 | 16.1 | 0.00 | 0.00 | 0.00 | 61 | |
| 20260508223616 | 22 | 255 | 16.1 | 16.1 | 0.00 | 0.00 | 0.00 | 60 | |
| 20260508223414 | 22 | 271 | 12.9 | 16.1 | 0.00 | 0.00 | 0.00 | 59 | |
| 20260508222203 | 22 | 260 | 16.1 | 19.3 | 0.00 | 0.00 | 0.00 | 60 |